Orebro, Sweden

7:18 AM CET on February 23, 2017 (GMT +0100)
Orebro

Weather History for ESOE - March, 2013

Change the Weather History Date:

Thursday, March 28, 2013

  Actual Average Record
Temperature  
Mean Temperature 30 °F -  
Max Temperature 42 °F - - ()
Min Temperature 17 °F - - ()
Degree Days  
Heating Degree Days 36    
Moisture  
Dew Point 18 °F    
Average Humidity 62    
Maximum Humidity 93    
Minimum Humidity 34    
Precipitation  
Precipitation 0.00 in - - ()
Sea Level Pressure  
Sea Level Pressure 30.15 in    
Wind  
Wind Speed 3 mph ()    
Max Wind Speed 7 mph    
Max Gust Speed -    
Visibility 6.2 miles    
Events      
T = Trace of Precipitation, MM = Missing Value Source: Averaged Metar Reports

Daily Weather History Graph

Daily Weather History Graph

Search for Another Location

Airport or City:

Trip Planner

Search our weather history database for the weather conditions in past years. The results will help you decide how hot, cold, wet, or windy it might be!

Date:

Astronomy

Mar. 28, 2013 Rise Set
Actual Time 5:37 AM CET 6:33 PM CET
Civil Twilight 4:56 AM CET 7:14 PM CET
Nautical Twilight 4:06 AM CET 8:05 PM CET
Astronomical Twilight 3:09 AM CET 9:02 PM CET
Moon 8:37 PM CET (3/28) 5:32 AM CET (3/28)
Length of Visible Light 14h 18m
Length of Day
12h 55m
Full, 99% of the Moon is Illuminated
Mar 28
Full
Apr 3
Last Quarter
Apr 10
New
Apr 18
First Quarter
Apr 25
Full

Hourly Weather History & Observations

Time (CET) Temp. Windchill Dew Point Humidity Pressure Visibility Wind Dir Wind Speed Gust Speed Precip Events Conditions
12:20 AM 24.8 °F 20.5 °F 17.6 °F 74% 30.15 in 6.2 mi WSW 3.5 mph - N/A   Unknown
12:50 AM 23.0 °F 18.4 °F 15.8 °F 74% 30.15 in 6.2 mi West 3.5 mph - N/A   Unknown
1:20 AM 24.8 °F - 17.6 °F 74% 30.15 in 6.2 mi West 2.3 mph - N/A   Unknown
1:50 AM 21.2 °F 14.9 °F 17.6 °F 86% 30.15 in 6.2 mi West 4.6 mph - N/A   Unknown
2:20 AM 21.2 °F 16.4 °F 17.6 °F 86% 30.15 in 6.2 mi WSW 3.5 mph - N/A   Unknown
2:50 AM 21.2 °F 14.9 °F 17.6 °F 86% 30.15 in 6.2 mi South 4.6 mph - N/A   Unknown
3:20 AM 23.0 °F 17.0 °F 19.4 °F 86% 30.15 in 6.2 mi SSW 4.6 mph - N/A   Unknown
3:50 AM 19.4 °F 14.3 °F 17.6 °F 93% 30.15 in 6.2 mi SSW 3.5 mph - N/A   Unknown
4:20 AM 19.4 °F 14.3 °F 15.8 °F 86% 30.15 in 6.2 mi SW 3.5 mph - N/A   Unknown
4:50 AM 19.4 °F - 15.8 °F 86% 30.15 in 6.2 mi South 2.3 mph - N/A   Unknown
5:20 AM 17.6 °F - 15.8 °F 93% 30.15 in - South 2.3 mph - N/A   Clear
5:50 AM 17.6 °F - 15.8 °F 93% 30.15 in - SW 2.3 mph - N/A   Clear
6:20 AM 19.4 °F - 15.8 °F 86% 30.15 in - Calm Calm - N/A   Clear
6:50 AM 23.0 °F - 19.4 °F 86% 30.15 in - Calm Calm - N/A   Clear
7:20 AM 23.0 °F 18.4 °F 17.6 °F 80% 30.18 in - South 3.5 mph - N/A   Clear
7:50 AM 24.8 °F 20.5 °F 19.4 °F 80% 30.18 in - SW 3.5 mph - N/A   Clear
8:20 AM 26.6 °F 22.6 °F 21.2 °F 80% 30.18 in - SSW 3.5 mph - N/A   Clear
8:50 AM 30.2 °F - 21.2 °F 69% 30.18 in - Variable 2.3 mph - N/A   Clear
9:20 AM 32.0 °F 28.7 °F 21.2 °F 64% 30.18 in - South 3.5 mph - N/A   Clear
9:50 AM 33.8 °F 30.8 °F 23.0 °F 65% 30.18 in - South 3.5 mph - N/A   Clear
10:20 AM 35.6 °F 32.8 °F 21.2 °F 56% 30.18 in - SSW 3.5 mph - N/A   Clear
10:50 AM 39.2 °F 37.0 °F 21.2 °F 49% 30.18 in - SE 3.5 mph - N/A   Clear
11:20 AM 39.2 °F 35.9 °F 19.4 °F 45% 30.18 in - SE 4.6 mph - N/A   Clear
11:50 AM 41.0 °F 39.0 °F 19.4 °F 42% 30.15 in - SSE 3.5 mph - N/A   Clear
12:20 PM 41.0 °F - 19.4 °F 42% 30.15 in - Variable 2.3 mph - N/A   Clear
12:50 PM 41.0 °F 37.1 °F 17.6 °F 39% 30.15 in - SSE 5.8 mph - N/A   Clear
1:20 PM 41.0 °F 37.1 °F 15.8 °F 36% 30.15 in - ESE 5.8 mph - N/A   Clear
1:50 PM 42.8 °F 39.3 °F 15.8 °F 34% 30.15 in - ESE 5.8 mph - N/A   Clear
2:20 PM 41.0 °F 38.0 °F 17.6 °F 39% 30.15 in - SE 4.6 mph - N/A   Clear
2:50 PM 42.8 °F 40.1 °F 15.8 °F 34% 30.15 in - ESE 4.6 mph - N/A   Clear
3:20 PM 42.8 °F 39.3 °F 15.8 °F 34% 30.12 in - ENE 5.8 mph - N/A   Clear
3:50 PM 42.8 °F 40.1 °F 15.8 °F 34% 30.12 in - East 4.6 mph - N/A   Clear
4:20 PM 42.8 °F 40.1 °F 17.6 °F 36% 30.12 in - East 4.6 mph - N/A   Clear
4:50 PM 41.0 °F 39.0 °F 17.6 °F 39% 30.12 in - East 3.5 mph - N/A   Clear
5:20 PM 41.0 °F 36.4 °F 21.2 °F 45% 30.12 in - ESE 6.9 mph - N/A   Clear
5:50 PM 39.2 °F 35.0 °F 19.4 °F 45% 30.12 in - ESE 5.8 mph - N/A   Clear
6:20 PM 37.4 °F 32.8 °F 17.6 °F 45% 30.12 in - East 5.8 mph - N/A   Clear
6:50 PM 37.4 °F 32.8 °F 17.6 °F 45% 30.12 in - East 5.8 mph - N/A   Clear
7:20 PM 35.6 °F 29.9 °F 17.6 °F 48% 30.12 in - East 6.9 mph - N/A   Clear
7:50 PM 35.6 °F 31.7 °F 15.8 °F 44% 30.12 in - ESE 4.6 mph - N/A   Clear
8:20 PM 33.8 °F 28.6 °F 17.6 °F 52% 30.12 in - ESE 5.8 mph - N/A   Clear
8:50 PM 33.8 °F 27.7 °F 19.4 °F 56% 30.15 in - SE 6.9 mph - N/A   Clear
9:20 PM 32.0 °F 27.5 °F 17.6 °F 55% 30.15 in 6.2 mi SE 4.6 mph - N/A   Unknown
9:50 PM 28.4 °F 24.6 °F 19.4 °F 69% 30.15 in 6.2 mi SSE 3.5 mph - N/A   Unknown
10:20 PM 26.6 °F - 19.4 °F 74% 30.15 in 6.2 mi SSE 2.3 mph - N/A   Unknown
10:50 PM 26.6 °F - 19.4 °F 74% 30.15 in 6.2 mi Variable 1.2 mph - N/A   Unknown
11:20 PM 24.8 °F 20.5 °F 17.6 °F 74% 30.15 in 6.2 mi North 3.5 mph - N/A   Unknown
11:50 PM 23.0 °F 15.8 °F 17.6 °F 80% 30.15 in 6.2 mi NNE 5.8 mph - N/A   Unknown